Regional Weather Roundup
Issued by NWS Burlington, VT

Home | Current Version | Previous Version | Text Only | Print | Product List | Glossary On
Versions: 1 2 3 4 5 6 7 8 9 10 11 12 13 14 15 16 17 18 19 20 21 22 23 24 25 26 27 28 29 30 31 32 33 34 35 36 37 38 39 40 41 42 43 44 45 46 47 48 49 50
000
ASUS41 KBTV 291630
RWRBTV
VERMONT REGIONAL WEATHER ROUNDUP
NATIONAL WEATHER SERVICE BURLINGTON VT
1100 AM EST MON DEC 29 2014

NOTE: "FAIR" INDICATES FEW OR NO CLOUDS BELOW 12,000 FEET WITH NO
SIGNIFICANT WEATHER AND/OR OBSTRUCTIONS TO VISIBILITY.

* THESE REPORTS ARE NOT UNDER NWS QUALITY CONTROL AND/OR DO NOT
  REPORT WEATHER SUCH AS PRECIPITATION AND FOG.

VTZ001>019-291700-
_____VERMONT_____


CITY           SKY/WX    TMP DP  RH WIND       PRES   REMARKS
BURLINGTON     MOSUNNY   26  11  52 NW15      30.19S WCI  14
MONTPELIER     CLOUDY    23  11  60 NW20G25   30.14S WCI   8
MORRISVILLE    MOSUNNY   23   9  55 NW10G20   30.16S WCI  12
ST. JOHNSBURY*   N/A     26   8  46 MISG      30.12R
LYNDONVILLE*   FAIR      23   4  45 SW15      30.11S WCI  10
MIDDLEBURY*    CLOUDY    28  15  56 N7        30.15F
RUTLAND*       PTSUNNY   30  16  55 NW8G18    30.11S
SPRINGFIELD    CLOUDY    34  14  43 VRB7G18   30.11S
HIGHGATE*      FAIR      23  -1  35 NW6       30.20S
NEWPORT*       FAIR      22   3  43 W9G16     30.12F
BENNINGTON     CLOUDY    35  20  54 VRB6      30.11F
GALLUP MILLS*    N/A     21 N/A N/A MISG        N/A
UNION VILLAGE*   N/A     28 N/A N/A MISG        N/A
MT. MANSFIELD*   N/A      9 N/A N/A CALM        N/A

_____LAKE CHAMPLAIN_____


CITY           SKY/WX    TMP DP  RH WIND       PRES   REMARKS
BURTON ISLAND*   N/A     25  14  63 NW9G15      N/A
COLCHESTER RF*   N/A     27  12  54 N21         N/A  WCI  13

$$

NYZ007-026>031-035-052-083-291700-
_____NORTHERN NEW YORK_____


CITY           SKY/WX    TMP DP  RH WIND       PRES   REMARKS
PLATTSBURGH    MOSUNNY   25   7  46 NW8       30.20S
SARANAC LAKE   MOSUNNY   20   5  52 W10       30.08F WCI   9
MASSENA        SUNNY     20   4  50 W16       30.25F WCI   6
POTSDAM*       SUNNY     21   9  58 N9        30.23F
STARK FALLS*     N/A     21 N/A N/A NW10        N/A  WCI  10
WATERTOWN      MOSUNNY   30  10  43 N5        30.23R
FT DRUM        CLOUDY    26  10  50 N6        30.19F
ALBANY         PTSUNNY   37  21  52 W13       30.16F
GLENS FALLS    CLOUDY    34  17  50 N9        30.15S

$$
NHZ002-005-011-291700-
_____NEW HAMPSHIRE_____


CITY           SKY/WX    TMP DP  RH WIND       PRES   REMARKS
LEBANON        CLOUDY    32  21  64 NW8       30.11R
KEENE          MOSUNNY   36  16  44 NW8       30.09F
MT WASHINGTON  FOG        3   3 100 NW75G83     N/A  VSB 1/16WCI -31
PLYMOUTH       CLOUDY    30  22  72 NW10G16   30.10S
WHITEFIELD     PTSUNNY   25   7  46 W15G24    30.09S WCI  13

$$

_____REGIONAL QUEBEC LOCATIONS_____


CITY           SKY/WX    TMP DP  RH WIND       PRES   REMARKS
MONTREAL       MOSUNNY   19   1  45 W10G18    30.22S WCI   8
QUEBEC CITY    MOSUNNY   12  -4  48 W15G22    30.12S WCI  -4
SHERBROOKE     SUNNY     21   7  53 W15G24    30.09S WCI   8

_____REGIONAL ONTARIO LOCATIONS_____


CITY           SKY/WX    TMP DP  RH WIND       PRES   REMARKS
OTTAWA         PTSUNNY   18   5  57 W17G23    30.24S WCI   2

______KEY______
VSB  - VISIBILITY IN MILES
WCI  - WIND CHILL INDEX
HX   - HEAT INDEX
$$
NNNN



USA.gov is the U.S. government's official web portal to all federal, state and local government web resources and services.